Le nostre stazioni meteo in Italia

Pubblicità
Il mio iltempo24.it
Lamezia Terme, Italia (16362): Temperatura & dewpoint: 12.03.2019 20:00:00 - 18.03.2019 20:00:00 (CET)Lamezia Terme, Italia (16362): velocità del vento: 12.03.2019 20:00:00 - 18.03.2019 20:00:00 (CET)Lamezia Terme, Italia (16362): direzione del vento: 12.03.2019 20:00:00 - 18.03.2019 20:00:00 (CET)Lamezia Terme, Italia (16362): reduced air pressure: 12.03.2019 20:00:00 - 18.03.2019 20:00:00 (CET)Lamezia Terme, Italia (16362): visibility: 12.03.2019 20:00:00 - 18.03.2019 20:00:00 (CET)Lamezia Terme, Italia (16362): precipitazioni: 12.03.2019 20:00:00 - 18.03.2019 20:00:00 (CET)
Data & Tempo tt [°C] td [°C] ff [km/h] ff [kn] dd ppp [hPa] vv [km] rr [mm]
18.03.2019 20:00:00 - - - - - - - -
18.03.2019 19:00:00 12,4 7,7 2 1 OSO 1015,5 10 0,0
18.03.2019 18:00:00 14,0 7,0 5 3 O - 10 -
18.03.2019 17:00:00 15,0 8,0 8 4 O - 10 -
18.03.2019 16:00:00 15,4 8,3 11 6 O 1014,8 10 -
18.03.2019 15:00:00 16,0 11,0 15 8 O - 10 -
18.03.2019 14:00:00 16,0 10,0 18 10 OSO - 10 -
18.03.2019 13:00:00 15,2 10,8 22 12 OSO 1016,1 10 0,0
18.03.2019 12:00:00 15,0 11,0 21 11 OSO - 10 -
18.03.2019 11:00:00 14,0 11,0 16 9 OSO - 10 -
18.03.2019 10:00:00 14,6 11,0 16 9 SO 1016,6 10 -
18.03.2019 09:00:00 13,0 11,0 9 5 SO - 10 -
18.03.2019 08:00:00 11,0 10,0 4 2 E - 10 -
18.03.2019 07:00:00 8,4 7,8 8 4 E 1015,8 10 0,0
18.03.2019 06:00:00 10,0 9,0 5 3 - - 8 -
18.03.2019 05:00:00 10,0 9,0 4 2 - - 8 -
18.03.2019 04:00:00 8,9 8,2 5 3 ESE 1015,4 10 -
18.03.2019 03:00:00 8,0 7,0 4 2 - - 8 -
18.03.2019 02:00:00 7,0 6,0 5 3 E - 8 -
18.03.2019 01:00:00 6,2 5,6 8 4 E 1016,4 10 0,0
18.03.2019 00:00:00 7,0 7,0 8 4 ENE - 10 -
17.03.2019 23:00:00 8,0 7,0 8 4 NE - 10 -
17.03.2019 22:00:00 7,9 7,2 9 5 E 1016,6 10 -
17.03.2019 21:00:00 9,0 8,0 8 4 E - 10 -
17.03.2019 20:00:00 11,0 9,0 5 3 - - 10 -
17.03.2019 19:00:00 11,8 9,6 4 2 S 1017,0 10 0,0
17.03.2019 18:00:00 14,0 10,0 9 5 OSO - 10 -
17.03.2019 17:00:00 15,0 10,0 15 8 OSO - 10 -
17.03.2019 16:00:00 14,9 10,4 16 9 OSO 1017,4 10 -
17.03.2019 15:00:00 15,0 11,0 15 8 OSO - 10 -
17.03.2019 14:00:00 15,0 11,0 15 8 OSO - 10 -
17.03.2019 13:00:00 15,0 11,8 13 7 OSO 1018,6 10 0,0
17.03.2019 12:00:00 15,0 12,0 11 6 O - 10 -
17.03.2019 11:00:00 14,0 10,0 11 6 OSO - 10 -
17.03.2019 10:00:00 14,3 10,8 9 5 OSO 1019,6 10 -
17.03.2019 09:00:00 14,0 10,0 0 0 N - 10 -
17.03.2019 08:00:00 12,0 10,0 5 3 NNE - 8 -
17.03.2019 07:00:00 10,3 9,0 5 3 ENE 1019,4 10 0,0
17.03.2019 06:00:00 10,0 9,0 5 3 E - 9 -
17.03.2019 05:00:00 10,0 9,0 5 3 - - 9 -
17.03.2019 04:00:00 8,7 8,0 5 3 E 1019,2 10 -
17.03.2019 03:00:00 8,0 8,0 4 2 ENE - 9 -
17.03.2019 02:00:00 7,0 6,0 4 2 ENE - 9 -
17.03.2019 01:00:00 6,6 5,8 5 3 E 1019,8 9 0,0
17.03.2019 00:00:00 7,0 6,0 4 2 - - 9 -
16.03.2019 23:00:00 8,0 7,0 0 0 N - 10 -
16.03.2019 22:00:00 9,1 7,9 2 1 - 1020,8 10 -
16.03.2019 21:00:00 12,0 10,0 11 6 OSO - 10 -
16.03.2019 20:00:00 12,0 10,0 11 6 OSO - 10 -
16.03.2019 19:00:00 12,6 10,2 13 7 OSO 1020,6 10 0,0
16.03.2019 18:00:00 14,0 10,0 18 10 OSO - 10 -
16.03.2019 17:00:00 14,0 11,0 21 11 OSO - 10 -
16.03.2019 16:00:00 14,4 11,0 21 11 OSO 1019,8 10 -
16.03.2019 15:00:00 15,0 11,0 16 9 OSO - 10 -
16.03.2019 14:00:00 15,0 12,0 21 11 OSO - 10 -
16.03.2019 13:00:00 14,9 11,2 21 11 OSO 1020,7 10 0,0
16.03.2019 12:00:00 - - 21 11 OSO - 10 -
16.03.2019 11:00:00 15,0 11,0 16 9 SO - 10 -
16.03.2019 10:00:00 14,6 10,8 16 9 SO 1021,4 10 -
16.03.2019 09:00:00 14,0 11,0 8 4 OSO - 10 -
16.03.2019 08:00:00 13,0 10,0 11 6 SO - 10 -
16.03.2019 07:00:00 12,1 9,9 13 7 SSO 1021,1 10 0,0
16.03.2019 06:00:00 11,0 9,0 11 6 SSO - 7 -
16.03.2019 05:00:00 11,0 10,0 9 5 SSO - 6 -
16.03.2019 04:00:00 11,1 9,1 8 4 S 1020,0 10 -
16.03.2019 03:00:00 11,0 9,0 9 5 O - 10 -
16.03.2019 02:00:00 11,0 9,0 9 5 O - 10 -
16.03.2019 01:00:00 12,4 9,3 18 10 O 1020,3 10 0,0
16.03.2019 00:00:00 12,0 9,0 16 9 O - 10 -
15.03.2019 23:00:00 12,0 9,0 18 10 OSO - 10 -
15.03.2019 22:00:00 12,1 8,9 15 8 O 1019,7 10 -
15.03.2019 21:00:00 12,0 9,0 16 9 OSO - 10 -
15.03.2019 20:00:00 12,0 9,0 16 9 O - 10 -
15.03.2019 19:00:00 12,1 8,5 22 12 O 1017,2 10 -
15.03.2019 18:00:00 13,0 8,0 22 12 O - 10 -
15.03.2019 17:00:00 14,0 9,0 26 14 O - 10 -
15.03.2019 16:00:00 14,5 9,2 28 15 O 1015,7 10 -
15.03.2019 15:00:00 15,0 10,0 28 15 O - 10 -
15.03.2019 14:00:00 15,0 12,0 29 16 O - 10 -
15.03.2019 13:00:00 14,8 11,5 35 19 O 1015,2 10 -
15.03.2019 12:00:00 15,0 10,0 28 15 O - 10 -
15.03.2019 11:00:00 14,0 10,0 24 13 O - 8 -
15.03.2019 10:00:00 14,0 9,0 29 16 O 1015,2 8 -
15.03.2019 09:00:00 13,0 9,0 29 16 O - 8 -
15.03.2019 08:00:00 12,0 8,0 18 10 O - 8 -
15.03.2019 07:00:00 11,8 8,3 24 13 O 1014,2 7 -
15.03.2019 06:00:00 - - - - - - - -
15.03.2019 05:00:00 11,0 7,0 15 8 O - 10 -
15.03.2019 04:00:00 10,7 8,9 21 11 O 1013,0 10 -
15.03.2019 03:00:00 11,0 7,0 18 10 O - 10 -
15.03.2019 02:00:00 10,0 6,0 11 6 ONO - 10 -
15.03.2019 01:00:00 9,9 4,7 9 5 O 1013,9 10 0,0
15.03.2019 00:00:00 10,0 4,0 16 9 O - 10 -
14.03.2019 23:00:00 11,0 4,0 21 11 ONO - 10 -
14.03.2019 22:00:00 11,8 4,2 22 12 ONO 1014,2 10 -
14.03.2019 21:00:00 12,0 5,0 22 12 O - 10 -
14.03.2019 20:00:00 12,0 5,0 22 12 ONO - 10 -
14.03.2019 19:00:00 11,4 6,4 15 8 O 1012,8 10 -
14.03.2019 18:00:00 11,0 6,0 22 12 O - 10 -
14.03.2019 17:00:00 12,0 5,0 4 2 - - 10 -
14.03.2019 16:00:00 12,3 6,6 22 12 O 1010,9 10 -
14.03.2019 15:00:00 12,0 6,0 18 10 O - 10 -
14.03.2019 14:00:00 12,0 6,0 31 17 O - 10 -
14.03.2019 13:00:00 12,6 7,2 21 11 O 1009,9 10 -
14.03.2019 12:00:00 12,0 7,0 16 9 O - 10 -
14.03.2019 11:00:00 11,0 7,0 29 16 ONO - 10 -
14.03.2019 10:00:00 12,2 5,6 42 23 O 1011,0 10 -
14.03.2019 09:00:00 11,0 9,0 16 9 OSO - 8 -
14.03.2019 08:00:00 10,0 8,0 8 4 O - 8 -
14.03.2019 07:00:00 9,9 7,5 21 11 O 1011,9 10 -
14.03.2019 06:00:00 10,0 8,0 11 6 SSO - 6 -
14.03.2019 05:00:00 10,0 8,0 16 9 OSO - 6 -
14.03.2019 04:00:00 10,1 6,9 11 6 SO 1012,4 10 -
14.03.2019 03:00:00 9,0 6,0 4 2 - - 10 -
14.03.2019 02:00:00 10,0 6,0 9 5 SSO - 10 -
14.03.2019 01:00:00 8,0 4,6 5 3 ONO 1015,1 10 0,0
14.03.2019 00:00:00 9,0 5,0 11 6 O - 10 -
13.03.2019 23:00:00 9,0 6,0 13 7 O - 10 -
13.03.2019 22:00:00 9,6 5,6 13 7 O 1016,3 10 -
13.03.2019 21:00:00 9,0 4,0 11 6 O - 10 -
13.03.2019 20:00:00 9,0 4,0 8 4 ONO - 10 -
13.03.2019 19:00:00 9,1 3,7 8 4 O 1016,9 10 0,0
13.03.2019 18:00:00 11,0 4,0 16 9 O - 10 -
13.03.2019 17:00:00 12,0 4,0 26 14 O - 10 -
13.03.2019 16:00:00 12,6 3,5 11 6 O 1017,0 10 -
13.03.2019 15:00:00 13,0 3,0 26 14 O - 10 -
13.03.2019 14:00:00 13,0 3,0 24 13 O - 10 -
13.03.2019 13:00:00 12,8 3,2 26 14 O 1018,6 10 0,0
13.03.2019 12:00:00 13,0 1,0 28 15 O - 10 -
13.03.2019 11:00:00 12,0 0,0 29 16 OSO - 10 -
13.03.2019 10:00:00 11,9 0,1 21 11 OSO 1019,0 10 -
13.03.2019 09:00:00 11,0 0,0 22 12 O - 10 -
13.03.2019 08:00:00 10,0 -1,0 16 9 O - 10 -
13.03.2019 07:00:00 7,7 -0,8 5 3 SSO 1018,5 10 0,0
13.03.2019 06:00:00 7,0 -4,0 16 9 O - 10 -
13.03.2019 05:00:00 9,0 -5,0 22 12 SO - 10 -
13.03.2019 04:00:00 7,6 -2,6 15 8 SO 1017,8 10 -
13.03.2019 03:00:00 4,0 -3,0 4 2 - - 10 -
13.03.2019 02:00:00 8,0 -5,0 9 5 NNO - 10 -
13.03.2019 01:00:00 8,3 -4,1 18 10 ONO 1018,6 10 0,0
13.03.2019 00:00:00 9,0 -4,0 21 11 ONO - 10 -
12.03.2019 23:00:00 10,0 -4,0 24 13 ONO - 10 -
12.03.2019 22:00:00 9,2 -4,1 18 10 ONO 1017,5 10 -
12.03.2019 21:00:00 10,0 -5,0 22 12 ONO - 10 -
12.03.2019 20:00:00 10,0 -5,0 22 12 ONO - 10 -

tt = Temperatura
td = dewpoint
ff = velocità del vento
dd = direzione del vento
ppp = reduced air pressure
vv = visibility
rr = precipitazioni

Stazioni seguenti

WeatherPro
AMSI
MeteoEarth